[[{"header":{"parameterUnit":"m.s-1","parameterCategory":1,"la1":30.2991,"la2":30.254,"lo1":-89.0895,"lo2":-89.0444,"dy":0.0017,"dx":0.0017,"nx":28,"ny":28,"refTime":"2024-03-02T03:00:00:Z","depth":0,"parameterNumber":2,"parameterNumberName":"U-component_of_WINDS"},"data":[0,0,0,0,0,0,0,0,0,0,0,0,0,0,0,0,0,0,0,0,0,0,0,0,0,0,0,0,0,0,0,0,0,0,0,0,0,0,0,0,0,0,0,0,0,0,0,0,0,0,0,0,0,0,0,0,0,0,0.1826,0.1826,0,0.1859,0.186,0.186,0.183,0.1829,0.1828,0.1826,0.1867,0.1869,0.1871,0,0,0,0,0,0,0,0,0,0,0,0,0,0.1744,0.1745,0.1826,0.1826,0.1827,0.1859,0.186,0.186,0.183,0.1829,0.1827,0.1826,0.1866,0.1869,0.1872,0,0,0,0,0,0,0,0,0,0,0,0,0,0.1779,0.1746,0.1826,0.1815,0.1815,0.1859,0.186,0.186,0.1831,0.1829,0.1827,0.1825,0.1865,0.1869,0.1872,0.193,0,0,0.1882,0.1884,0,0,0,0,0,0,0,0,0.1777,0.1782,0.1817,0.1816,0.1816,0.1838,0.1846,0.1884,0.1831,0.1825,0.1826,0.1824,0.1859,0.1863,0.1874,0.1932,0.1934,0.1883,0.1885,0.1886,0.1887,0,0,0,0,0,0,0,0.1774,0.178,0.1839,0.1817,0.1817,0.1812,0.1815,0.1853,0.1852,0.1825,0.1823,0.1827,0.1859,0.1871,0.1874,0.1934,0.1882,0.1885,0.1887,0.1889,0.2046,0.2048,0,0,0,0,0,0,0.1772,0.1778,0.1838,0.184,0.1791,0.1815,0.1818,0.1833,0.1852,0.1853,0.1829,0.1826,0.1866,0.1871,0.1876,0.1948,0.1886,0.1889,0.1891,0.2044,0.2046,0.2049,0,0,0,0,0,0,0.177,0.1777,0.1837,0.1809,0.1816,0.1818,0.1835,0.1835,0.1846,0.1854,0.1855,0.184,0.1864,0.1871,0.1917,0.1948,0.1891,0.1894,0.2041,0.2045,0.2048,0.209,0,0,0,0,0,0,0.1768,0.1777,0.1797,0.1809,0.1817,0.1875,0.1837,0.1837,0.1851,0.1848,0.1865,0.1867,0.1863,0.1912,0.1921,0.1952,0.1896,0.2039,0.2043,0.2047,0.2086,0.2094,0.2101,0,0,0,0,0,0.1765,0.1808,0.1798,0.1806,0.1842,0.1877,0.1882,0.1876,0.1854,0.1876,0.1882,0.1866,0.1943,0.1917,0.1926,0.1959,0.2037,0.2042,0.2046,0.2082,0.2093,0.2101,0,0,0,0,0,0,0.1802,0.181,0.1799,0.1846,0.1861,0.1872,0.1899,0.1886,0.1909,0.1905,0.1898,0.1903,0.1952,0.196,0.1931,0.2018,0.1987,0.1994,0.2011,0.2021,0.2029,0.2027,0.1899,0,0,0,0,0,0.1815,0.184,0.1847,0.1889,0.1896,0.1897,0.1911,0.1905,0.1921,0.1928,0.1937,0.1955,0.1983,0.2002,0.2029,0.2087,0.2092,0.2114,0.2122,0.2128,0.2135,0.217,0.218,0.2065,0.2065,0.2065,0,0,0.1843,0.1851,0.1867,0.1896,0.1907,0.1936,0.1902,0.1934,0.1956,0.1933,0.1977,0.1985,0.2005,0.2058,0.2082,0.2066,0.2168,0.2134,0.2139,0.2143,0.2176,0.2187,0.2196,0.2068,0.2067,0.2067,0,0,0.191,0.1917,0.1954,0.1965,0.1981,0.1981,0.1991,0.2004,0.2007,0.2051,0.2035,0.2064,0.2112,0.2128,0.2142,0.2217,0.2206,0.2226,0.2268,0.2302,0.2311,0.2319,0.2349,0.2359,0.2233,0.2233,0.2233,0,0.1944,0.1985,0.1975,0.2008,0.2023,0.2002,0.2041,0.2054,0.2079,0.2091,0.2072,0.2135,0.2146,0.2204,0.2223,0.2234,0.2247,0.2225,0.231,0.2318,0.2326,0.2354,0.2365,0.2235,0.2235,0.2235,0.2235,0,0.2027,0.2056,0.2084,0.2108,0.2125,0.2161,0.216,0.218,0.2173,0.2176,0.2223,0.2237,0.2267,0.228,0.2274,0.2338,0.2329,0.231,0.2279,0.2339,0.2366,0.2377,0.2239,0.2238,0.2237,0.2237,0,0,0.2117,0.2135,0.2146,0.2158,0.2175,0.2199,0.2236,0.2264,0.2282,0.2301,0.2334,0.2376,0.236,0.2377,0.2373,0.2402,0.2465,0.2381,0.2381,0.2398,0.2541,0.2556,0.2568,0.2456,0.2458,0.246,0.254,0,0.2187,0.2248,0.2241,0.2301,0.233,0.2312,0.2345,0.2361,0.2365,0.2392,0.2398,0.2429,0.2404,0.2415,0.2443,0.2451,0.2494,0.2445,0.249,0.2492,0.2488,0.2582,0.2597,0.2672,0.255,0.2552,0.2553,0,0.2275,0.2296,0.2359,0.2374,0.2386,0.2415,0.2442,0.2467,0.2486,0.2487,0.2507,0.2498,0.2539,0.2505,0.2564,0.2531,0.2549,0.2556,0.2559,0.2565,0.2528,0.2593,0.2695,0.2708,0.2569,0.2568,0.2567,0,0.2338,0.2382,0.2425,0.2436,0.2454,0.2475,0.2485,0.2501,0.252,0.2544,0.2557,0.2586,0.2603,0.2627,0.2628,0.2603,0.2689,0.2654,0.2694,0.2694,0.2714,0.2713,0.2824,0.2722,0.2722,0.2722,0.2721,0,0.2417,0.2457,0.2454,0.2481,0.2527,0.252,0.2566,0.2573,0.2589,0.262,0.2606,0.2636,0.2634,0.2665,0.2667,0.2717,0.2724,0.2729,0.2729,0.2731,0.2731,0.2744,0.274,0.2725,0.2724,0.2723,0.2723,0,0.2496,0.2495,0.2542,0.2555,0.256,0.2593,0.2606,0.2634,0.2637,0.2676,0.2685,0.2692,0.2728,0.2731,0.2774,0.2775,0.2836,0.283,0.2829,0.2829,0.287,0.2867,0.2995,0.3013,0.2897,0.2898,0.2899,0,0.2547,0.2577,0.2594,0.2613,0.2623,0.2653,0.2671,0.2667,0.2688,0.2713,0.2739,0.2773,0.28,0.286,0.2871,0.2904,0.29,0.2943,0.2905,0.2907,0.2904,0.2903,0.2908,0.2951,0.2952,0.2953,0.2954,0,0.264,0.2638,0.2664,0.2691,0.2713,0.2734,0.2754,0.2771,0.277,0.2794,0.283,0.2852,0.2895,0.2931,0.2964,0.2977,0.2967,0.2965,0.2977,0.298,0.298,0.2984,0.2852,0.2963,0.2962,0.2961,0.2961,0.296,0.2708,0.2735,0.2751,0.2782,0.2796,0.2816,0.2843,0.285,0.2879,0.2913,0.2909,0.295,0.2972,0.3015,0.3031,0.3065,0.3051,0.3067,0.3071,0.3076,0.3082,0.2972,0.3071,0.307,0.307,0.307,0.307,0,0.2802,0.2812,0.284,0.2868,0.2893,0.2878,0.2901,0.2923,0.2959,0.2979,0.3006,0.305,0.3085,0.3099,0.3134,0.316,0.3156,0.3169,0.3169,0.3173,0.309,0.3078,0.3172,0.3172,0.3172,0.3172,0.3172,0.3172,0.2854,0.29,0.2901,0.2955,0.2965,0.3004,0.3018,0.3038,0.3054,0.3102,0.3131,0.3139,0.3158,0.3195,0.3228,0.3232,0.3247,0.3263,0.3265,0.3188,0.3178,0.3168,0.3157,0.3265,0.3265,0.3344,0.3345,0.3346]},{"header":{"parameterUnit":"m.s-1","parameterCategory":1,"la1":30.2991,"la2":30.254,"lo1":-89.0895,"lo2":-89.0444,"dy":0.0017,"dx":0.0017,"nx":28,"ny":28,"refTime":"2024-03-02T03:00:00:Z","depth":0,"parameterNumber":3,"parameterNumberName":"V-component_of_WINDS"},"data":[0,0,0,0,0,0,0,0,0,0,0,0,0,0,0,0,0,0,0,0,0,0,0,0,0,0,0,0,0,0,0,0,0,0,0,0,0,0,0,0,0,0,0,0,0,0,0,0,0,0,0,0,0,0,0,0,0,0,-2.6564,-2.6563,0,-2.6453,-2.6451,-2.645,-2.642,-2.6421,-2.6421,-2.6422,-2.6293,-2.6289,-2.6285,0,0,0,0,0,0,0,0,0,0,0,0,0,-2.6736,-2.6733,-2.6565,-2.6563,-2.6562,-2.6453,-2.6451,-2.645,-2.642,-2.6421,-2.6422,-2.6422,-2.6294,-2.6289,-2.6284,0,0,0,0,0,0,0,0,0,0,0,0,0,-2.6646,-2.6732,-2.6565,-2.6534,-2.653,-2.6453,-2.6451,-2.6449,-2.642,-2.6421,-2.6422,-2.6423,-2.6296,-2.629,-2.6284,-2.6224,0,0,-2.6265,-2.6262,0,0,0,0,0,0,0,0,-2.6652,-2.664,-2.654,-2.6536,-2.6532,-2.6452,-2.6464,-2.6373,-2.642,-2.6461,-2.6422,-2.6423,-2.6344,-2.6334,-2.631,-2.6218,-2.6213,-2.6264,-2.626,-2.6258,-2.6256,0,0,0,0,0,0,0,-2.6658,-2.6645,-2.652,-2.6538,-2.6533,-2.6521,-2.6509,-2.6447,-2.6397,-2.6458,-2.6455,-2.6443,-2.6341,-2.6316,-2.6307,-2.6211,-2.6264,-2.6259,-2.6255,-2.6253,-2.6059,-2.6057,0,0,0,0,0,0,-2.6671,-2.665,-2.6523,-2.6516,-2.6596,-2.6517,-2.6504,-2.6476,-2.6398,-2.6388,-2.6443,-2.6442,-2.6326,-2.6314,-2.6302,-2.6225,-2.6258,-2.6252,-2.6249,-2.606,-2.6058,-2.6057,0,0,0,0,0,0,-2.6675,-2.6661,-2.6528,-2.6583,-2.6565,-2.6513,-2.6482,-2.6473,-2.6448,-2.6387,-2.6376,-2.6427,-2.6326,-2.6311,-2.6244,-2.622,-2.6249,-2.6244,-2.6062,-2.606,-2.6058,-2.6071,0,0,0,0,0,0,-2.668,-2.6662,-2.6643,-2.6583,-2.6562,-2.6477,-2.648,-2.647,-2.6439,-2.6438,-2.6369,-2.6358,-2.6326,-2.6253,-2.6238,-2.6212,-2.6239,-2.6064,-2.6061,-2.6058,-2.6073,-2.607,-2.6067,0,0,0,0,0,-2.6687,-2.6649,-2.6643,-2.6627,-2.6538,-2.6476,-2.6463,-2.6431,-2.6438,-2.6415,-2.6375,-2.6361,-2.6225,-2.6247,-2.6229,-2.6201,-2.6065,-2.6062,-2.6059,-2.6074,-2.607,-2.6067,0,0,0,0,0,0,-2.6704,-2.6641,-2.6633,-2.6576,-2.6532,-2.6471,-2.6442,-2.6429,-2.6378,-2.6379,-2.6336,-2.632,-2.6255,-2.6221,-2.6246,-2.6136,-2.6144,-2.6137,-2.6162,-2.6158,-2.6155,-2.6164,-2.6234,0,0,0,0,0,-2.6702,-2.6662,-2.6606,-2.6561,-2.654,-2.6495,-2.6466,-2.6445,-2.6396,-2.6376,-2.6331,-2.6279,-2.6224,-2.6189,-2.6136,-2.6067,-2.6049,-2.6038,-2.6036,-2.6034,-2.6028,-2.5984,-2.5978,-2.6046,-2.6046,-2.6046,0,0,-2.6696,-2.6656,-2.6633,-2.6563,-2.6527,-2.6481,-2.6479,-2.6431,-2.6395,-2.6367,-2.6302,-2.6267,-2.6205,-2.6137,-2.6104,-2.6106,-2.6005,-2.603,-2.6029,-2.6024,-2.598,-2.5974,-2.5968,-2.6044,-2.6044,-2.6045,0,0,-2.6661,-2.6629,-2.6587,-2.6551,-2.6497,-2.6467,-2.6456,-2.6397,-2.6374,-2.6309,-2.6286,-2.6238,-2.6147,-2.6103,-2.6069,-2.6014,-2.5997,-2.5997,-2.5982,-2.5941,-2.5935,-2.593,-2.5907,-2.59,-2.5991,-2.5991,-2.5991,0,-2.666,-2.6595,-2.6565,-2.6518,-2.6486,-2.6463,-2.6416,-2.638,-2.6309,-2.6285,-2.629,-2.6172,-2.6129,-2.6048,-2.6034,-2.6008,-2.599,-2.6005,-2.5939,-2.5934,-2.5928,-2.5906,-2.5898,-2.5992,-2.5992,-2.5992,-2.5991,0,-2.6593,-2.6547,-2.6518,-2.6455,-2.642,-2.6373,-2.6331,-2.6297,-2.6278,-2.6245,-2.6176,-2.6124,-2.6058,-2.6037,-2.6016,-2.5951,-2.5953,-2.5949,-2.5956,-2.5923,-2.5901,-2.5892,-2.5992,-2.5992,-2.5992,-2.5992,0,0,-2.6567,-2.6488,-2.6478,-2.6447,-2.6385,-2.6346,-2.6295,-2.6235,-2.6205,-2.6155,-2.6108,-2.603,-2.6025,-2.5985,-2.5959,-2.5922,-2.5877,-2.5921,-2.5919,-2.5913,-2.5797,-2.5799,-2.579,-2.5866,-2.5864,-2.5863,-2.5801,0,-2.6523,-2.6438,-2.6409,-2.6336,-2.629,-2.6266,-2.622,-2.6173,-2.6141,-2.6092,-2.6053,-2.5998,-2.5997,-2.5973,-2.5936,-2.5891,-2.5853,-2.5895,-2.5816,-2.5814,-2.5832,-2.5779,-2.5783,-2.5727,-2.5792,-2.5791,-2.579,0,-2.6461,-2.6415,-2.6339,-2.628,-2.6259,-2.622,-2.616,-2.6117,-2.606,-2.6038,-2.5994,-2.597,-2.5909,-2.592,-2.5832,-2.5861,-2.5826,-2.5798,-2.5795,-2.5785,-2.5799,-2.5765,-2.5709,-2.57,-2.5776,-2.5778,-2.5778,0,-2.6447,-2.6366,-2.6309,-2.6284,-2.6213,-2.6186,-2.6154,-2.6099,-2.6064,-2.6009,-2.5984,-2.5922,-2.5887,-2.5836,-2.5792,-2.5805,-2.5706,-2.5715,-2.5681,-2.5682,-2.5661,-2.5663,-2.5596,-2.5642,-2.5642,-2.5642,-2.5643,0,-2.64,-2.6354,-2.6302,-2.6266,-2.6211,-2.6175,-2.6119,-2.6085,-2.6036,-2.5989,-2.5962,-2.5917,-2.5864,-2.581,-2.5774,-2.5704,-2.5689,-2.5665,-2.5656,-2.5667,-2.5669,-2.5642,-2.5644,-2.564,-2.5641,-2.5641,-2.5641,0,-2.6375,-2.634,-2.6275,-2.6214,-2.6198,-2.6159,-2.6104,-2.6065,-2.6031,-2.5971,-2.5954,-2.5898,-2.5833,-2.5785,-2.57,-2.5675,-2.5599,-2.5591,-2.562,-2.5615,-2.5584,-2.5586,-2.5495,-2.548,-2.5539,-2.5538,-2.5538,0,-2.6348,-2.6312,-2.6247,-2.6217,-2.6186,-2.6136,-2.6101,-2.6061,-2.6024,-2.5955,-2.5923,-2.5858,-2.5803,-2.5698,-2.5645,-2.5578,-2.5566,-2.5539,-2.5556,-2.5566,-2.5562,-2.5564,-2.5558,-2.5536,-2.5536,-2.5535,-2.5535,0,-2.63,-2.6284,-2.6237,-2.6182,-2.6141,-2.6095,-2.6047,-2.6021,-2.5972,-2.593,-2.5866,-2.5824,-2.5738,-2.567,-2.5597,-2.5557,-2.5535,-2.553,-2.5519,-2.5528,-2.5546,-2.5533,-2.5611,-2.5532,-2.5533,-2.5533,-2.5533,-2.5533,-2.6271,-2.6237,-2.6187,-2.6133,-2.6094,-2.605,-2.601,-2.5971,-2.5919,-2.5849,-2.5827,-2.5759,-2.5697,-2.5599,-2.5557,-2.5499,-2.5499,-2.5483,-2.5478,-2.5474,-2.5473,-2.5557,-2.5485,-2.5485,-2.5485,-2.5485,-2.5485,0,-2.6221,-2.6187,-2.6138,-2.6075,-2.6031,-2.602,-2.5966,-2.5928,-2.5871,-2.5818,-2.5766,-2.5688,-2.5622,-2.5564,-2.5493,-2.5457,-2.5444,-2.5439,-2.544,-2.543,-2.5479,-2.5495,-2.545,-2.545,-2.545,-2.545,-2.545,-2.545,-2.6189,-2.613,-2.6107,-2.6025,-2.599,-2.5927,-2.5897,-2.5853,-2.5811,-2.5728,-2.5675,-2.5639,-2.5582,-2.5506,-2.5442,-2.5426,-2.5399,-2.5396,-2.5377,-2.5423,-2.5427,-2.5431,-2.5446,-2.5391,-2.5391,-2.5333,-2.5332,-2.5332]}]]